Location: Unspecified
(48.5670°N, 0.0000°E)
Time: 21:10:23
(UTC+00:00)

Transit 4A - Pass Details

Date: 27 August 2019
Orbit: 866 x 978 km, 66.8° (Epoch: 13 October)

Event Time Altitude Azimuth Distance (km) Brightness Sun altitude
Rises 01:41:21 0° 324° (NW) 3,642 11.3 -27.2°
Reaches altitude 10° 01:43:56 10° 324° (NW) 2,678 10.6 -27.0°
Maximum altitude 01:50:11 85° 238° (WSW) 937 7.7 -26.5°
Enters shadow 01:51:28 58° 155° (SSE) 1,067 7.9 -26.4°
